{"data":{"norad_id":55154,"intl_designator":"2023-004Q","name":"ONEWEB-0598","alt_names":[],"object_type":"PAYLOAD","status":"ACTIVE","operator":null,"country":"UK","launch_date":"2023-01-10","launch_site_code":"AFETR","launch_vehicle":null,"mission":null,"orbit_class":"UNKNOWN","rcs_meters":null,"size_class":null,"mass_kg":null,"dimensions":null,"purposes":["comms"],"wikipedia_slug":null,"has_3d_model":false,"image_url":null,"decayed_at":null,"tle_current":{"epoch":"2026-05-25T02:50:50.512416Z","epoch_age_seconds":68006,"freshness":"FRESH","line1":"1 55154U 23004Q   26145.11864019  .00000559  00000+0  15420-2 0  9999","line2":"2 55154  87.8908  25.6590 0001068  84.2027 275.9222 13.11416017162875","mean_motion":13.11416017,"eccentricity":0.0001068,"inclination_deg":87.8908,"raan_deg":25.659,"arg_perigee_deg":84.2027,"mean_anomaly_deg":275.9222,"bstar":0.001542,"rev_number":16287,"period_min":109.80497274192,"perigee_km":1216.8750478104,"apogee_km":1218.4975156634,"semimajor_km":7595.8232817369,"source":"CELESTRAK","updated_at":"2026-05-25T13:38:22.642301Z"}}}